Dewpoint
22 20 16 16 16 18 25 15 11 9 11 12 15 14 12 10 12 14 13 10 1 1 5 6 9 6 9 14 20 22 43 48 49 51 52 52 52 52 52 54 57 58 60 62 62 63 64 64 65 64 64 64 64 65 65 64 64 64 64 64 64 65 65 63 63 63 63 62 62 62 62 62 63 64 64 65 65 66 67 67 67 66 66 66 66 66
22 20 19 18 17 18 21 26 26 26 26 14 13 13 11 13 14 14 15 9 3 16 7 10 8 11 11 18 20 34 46 47 48 50 51 51 51 51 51 54 57 60 61 62 62 63 63 64 64 63 63 64 63 64 65 64 64 63 64 63 63 64 64 64 63 63 63 62 62 62 62 62 63 63 64 64 65 66 66 67 67 66 66 66 66 66
23 21 21 19 19 25 28 29 30 28 25 23 18 16 16 13 15 16 22 8 14 11 15 17 8 13 18 23 21 37 44 47 49 50 50 50 50 50 50 54 59 60 61 61 62 62 62 63 63 63 62 63 63 63 64 64 63 64 64 64 63 64 64 64 64 63 63 64 63 63 63 63 63 63 64 64 65 66 66 66 66 66 66 66 66 66
23 21 22 20 25 25 25 24 26 28 30 23 20 18 14 12 14 14 22 14 14 19 17 17 11 24 31 30 27 28 35 46 49 49 50 50 50 49 50 56 59 60 60 61 61 61 61 62 62 61 61 62 62 63 63 63 63 64 65 64 63 64 64 64 64 64 63 63 63 63 64 64 63 62 64 64 65 65 65 65 66 66 65 66 66 66
20 20 20 21 20 20 22 22 25 22 17 29 24 16 14 15 17 15 17 17 30 26 30 22 28 23 29 18 18 20 27 41 48 49 50 50 49 50 50 57 59 60 60 60 60 60 61 61 61 61 61 61 61 62 62 62 62 64 65 64 64 64 64 64 64 64 64 63 62 62 63 64 64 64 64 64 64 64 65 65 65 65 65 66 66 67
22 22 26 18 18 16 19 18 21 24 19 22 29 21 16 19 22 23 23 18 20 18 26 12 12 19 25 24 22 20 23 23 46 48 49 49 49 49 50 56 59 59 60 60 60 60 60 60 59 59 60 60 61 61 62 62 62 63 64 64 64 64 64 63 64 63 63 63 62 62 62 62 62 62 62 62 62 63 63 64 65 65 66 66 66 67
23 27 24 18 18 17 14 14 15 22 18 20 22 28 23 22 26 25 20 18 10 9 18 26 11 14 21 23 22 21 21 20 37 46 48 49 49 48 48 52 58 59 58 57 58 59 59 59 59 59 59 60 60 60 60 60 61 61 62 64 64 64 64 63 63 63 63 62 62 62 62 62 62 62 63 63 63 64 64 64 64 65 65 66 66 66
22 21 21 18 19 16 16 14 15 16 21 19 27 24 21 20 22 26 16 13 18 29 29 25 18 12 11 17 19 23 25 33 32 26 35 46 48 49 49 50 55 58 58 58 58 58 58 58 59 59 59 59 60 60 60 59 60 60 62 64 64 63 64 64 63 63 63 62 62 62 62 62 61 62 62 63 63 64 64 64 64 64 64 64 65 64
29 25 23 21 18 15 13 13 17 15 16 21 26 21 19 18 24 18 13 16 19 18 12 22 18 11 12 19 30 21 30 35 37 39 41 35 47 48 49 50 54 56 56 57 57 57 57 57 57 57 58 59 60 60 62 62 61 62 63 64 64 63 64 64 63 63 63 63 63 62 62 61 62 62 61 63 63 63 64 63 63 64 64 64 64 64
23 21 19 19 17 15 14 12 15 14 15 20 24 22 24 16 16 17 19 16 21 14 10 19 23 9 12 23 37 39 34 33 37 40 43 46 40 48 49 51 55 55 57 57 57 57 57 57 57 58 58 59 59 59 60 61 63 63 64 63 64 64 64 64 64 63 63 63 62 61 61 61 61 61 61 63 63 63 64 64 63 63 64 63 63 63
18 29 26 17 17 16 15 15 15 19 19 23 18 17 15 15 17 26 24 24 20 10 14 23 28 8 7 30 37 38 39 39 37 42 46 50 52 54 54 55 57 58 58 57 57 56 56 57 58 58 58 58 59 59 60 60 59 61 64 65 64 64 65 65 64 63 62 62 61 62 62 61 61 61 62 63 63 63 63 63 62 62 62 62 62 62
15 14 13 18 20 19 18 18 17 17 16 14 18 17 14 17 19 18 22 21 9 12 21 21 15 11 7 20 40 43 44 42 40 41 47 52 53 54 54 55 57 57 56 55 54 54 55 56 57 58 58 58 58 59 59 60 59 59 60 62 62 62 61 63 64 63 62 62 62 62 62 61 61 62 62 62 62 62 62 62 62 62 61 61 61 61
19 15 14 16 29 17 16 15 16 18 16 14 17 17 15 14 12 8 13 6 8 12 17 18 11 12 15 32 37 45 46 48 49 50 51 52 53 53 53 53 54 55 54 54 54 55 55 55 56 57 57 58 57 57 59 59 59 60 60 61 60 58 59 62 63 62 61 62 62 62 62 62 62 62 62 62 62 62 61 61 61 61 61 59 60 60
17 19 12 12 15 22 14 13 17 17 16 12 11 17 11 9 8 5 13 11 13 15 19 20 16 12 27 36 44 48 50 51 51 51 52 53 53 53 53 54 53 53 54 54 55 55 55 55 55 56 56 57 56 57 58 58 59 59 59 61 60 58 59 63 62 62 61 61 62 62 62 62 62 62 62 62 61 61 61 61 60 60 60 60 60 61
11 13 16 15 13 18 14 13 15 20 16 11 12 12 15 17 13 5 10 6 8 10 17 21 11 9 32 37 47 49 51 51 51 51 52 53 53 54 54 54 54 54 54 55 55 55 55 56 56 56 57 57 56 57 58 58 59 60 60 61 61 62 61 63 60 60 61 61 61 61 61 61 62 62 62 62 62 61 61 60 60 60 60 60 60 61
13 18 22 16 14 16 15 18 17 16 16 20 15 15 14 12 21 12 17 15 16 13 13 22 14 31 37 43 47 49 51 51 51 51 52 52 53 53 53 54 54 54 54 55 55 55 55 56 56 57 57 57 57 58 57 58 59 60 61 61 61 60 61 60 58 59 59 60 61 61 61 61 61 61 62 62 62 61 61 61 60 60 60 60 61 61
16 19 25 18 15 15 14 19 20 16 14 22 10 12 12 18 13 15 13 23 15 12 8 20 32 36 40 41 44 48 49 50 51 50 51 52 52 52 53 53 54 54 55 55 55 55 56 56 57 58 58 58 57 58 58 59 59 59 60 61 60 61 61 59 59 59 60 60 60 60 61 61 61 61 61 61 61 61 61 61 60 60 60 60 60 60
18 20 27 17 11 14 18 18 19 17 23 14 13 12 16 19 21 18 13 15 10 9 14 27 31 34 32 32 41 46 48 49 49 50 50 51 51 51 52 52 53 54 55 56 56 56 57 57 57 58 59 58 58 58 59 59 60 60 60 59 59 59 59 59 59 60 60 60 60 60 60 60 60 61 61 61 62 61 61 60 60 60 60 60 60 59
17 11 17 18 14 15 21 18 19 19 17 14 14 18 12 11 9 22 18 4 5 5 8 16 30 30 29 32 40 45 47 48 49 49 50 50 50 50 51 52 53 54 55 55 56 56 56 57 57 58 59 59 59 58 59 59 59 59 59 59 59 59 59 59 60 60 60 60 60 61 60 60 61 61 61 61 61 61 61 60 60 60 60 59 58 58
26 14 19 25 20 16 17 17 19 18 15 18 14 14 21 26 24 11 15 16 13 10 8 12 27 24 37 35 43 46 48 48 48 49 49 49 50 51 52 53 54 54 54 55 55 56 57 58 58 58 58 58 58 59 59 59 59 59 59 59 60 60 60 60 60 60 60 60 61 61 61 61 61 61 61 61 61 61 60 60 60 59 58 58 58 58
13 25 15 25 22 17 18 19 18 17 16 15 14 16 15 21 24 16 24 12 11 12 13 16 20 25 33 41 45 47 48 49 49 48 49 50 51 52 53 53 53 53 54 54 54 55 56 57 58 59 59 59 59 59 59 59 59 59 59 59 59 59 59 60 60 60 60 61 61 61 62 61 61 61 61 61 61 60 60 60 60 59 58 58 57 57
15 17 20 26 18 21 22 20 16 16 15 17 15 16 13 14 13 12 17 24 20 15 12 14 12 27 36 48 47 49 50 49 49 49 49 50 51 51 52 52 52 52 53 53 54 54 54 55 56 58 59 59 59 59 59 59 59 59 59 59 59 59 59 59 59 60 60 60 61 62 61 61 61 61 60 60 60 60 60 59 59 59 58 57 57 56
26 27 22 15 17 22 20 25 26 22 16 16 14 23 14 19 20 16 10 19 23 25 28 24 25 23 40 47 48 50 50 50 50 49 49 50 50 50 51 51 52 52 52 51 51 52 53 53 54 55 56 56 57 57 58 58 59 59 59 59 59 59 58 58 59 60 60 60 60 60 60 60 60 60 60 59 59 59 59 58 58 58 57 56 55 55
51 21 18 19 21 28 25 24 33 34 31 35 37 38 30 20 21 17 20 25 22 24 21 21 22 26 45 48 49 49 49 49 49 48 48 49 49 48 48 48 49 49 50 49 50 51 51 52 53 54 54 55 55 56 56 56 57 58 59 59 60 59 59 59 59 60 60 60 60 59 59 60 60 60 59 59 58 58 58 58 58 58 57 56 55 54
23 27 20 18 15 19 26 23 30 33 35 36 36 38 37 33 25 28 30 28 23 25 25 22 21 30 45 49 48 48 48 47 47 48 49 48 48 47 46 46 45 46 47 47 47 49 49 48 49 51 53 53 54 54 54 55 56 57 58 59 59 59 57 59 59 59 60 60 60 59 59 59 59 59 59 59 59 59 58 58 57 57 57 56 55 54
31 29 28 18 15 11 11 13 25 29 33 35 40 39 39 35 35 27 15 23 22 27 30 28 30 36 46 48 47 47 47 47 48 48 48 47 46 45 45 44 44 44 44 45 46 47 46 47 47 47 49 52 53 53 53 53 54 55 56 58 59 58 58 58 59 59 59 60 59 58 58 58 58 59 59 59 59 59 58 57 57 57 56 56 55 54
33 36 32 26 22 21 27 31 35 36 36 35 38 39 39 40 38 33 30 26 27 29 32 34 37 40 43 45 45 46 45 45 46 46 46 45 45 44 44 44 43 42 42 42 44 45 45 45 45 46 47 49 51 51 51 52 52 53 54 54 55 57 59 58 58 58 59 59 58 58 58 57 57 57 58 59 59 58 58 57 57 56 56 56 55 54
33 33 36 34 33 31 34 36 38 38 37 38 37 37 39 39 37 31 26 25 31 29 28 35 42 41 42 44 44 44 45 44 45 45 44 44 44 44 44 43 43 42 42 41 41 42 43 43 43 44 46 49 50 49 49 49 50 51 51 52 53 54 55 56 57 58 59 58 58 57 57 56 57 57 58 58 58 57 56 56 56 56 56 56 54 53
34 32 36 36 36 36 37 38 38 38 38 37 37 37 37 39 38 35 35 36 30 25 29 38 42 40 42 43 44 44 43 43 43 44 44 44 43 43 43 43 43 43 42 41 40 40 40 39 40 41 45 48 48 48 48 48 48 49 49 50 51 52 53 54 56 57 58 58 58 58 57 57 57 58 58 58 58 58 56 56 56 56 56 54 53 54
35 32 35 35 35 37 37 38 38 37 37 37 37 37 37 38 38 38 37 37 34 31 37 40 40 39 41 41 41 41 41 40 40 40 41 42 42 42 42 42 42 42 42 41 41 41 40 39 38 38 42 46 47 47 47 47 47 47 48 49 50 50 51 53 53 55 58 58 58 58 57 57 57 58 57 57 57 57 56 55 55 55 55 54 54 54
34 30 39 35 32 33 36 38 37 36 35 35 36 37 37 37 38 39 38 38 38 39 40 39 38 36 40 42 41 42 41 39 39 39 39 39 41 41 41 41 40 40 40 40 41 42 42 38 38 38 39 42 45 45 45 45 46 46 47 48 48 49 50 52 53 55 58 57 57 57 57 57 57 57 57 57 57 56 55 55 55 54 54 54 53 53
36 31 39 34 30 29 35 36 35 35 35 35 35 36 37 36 35 38 35 38 38 37 39 38 35 34 38 40 40 40 39 38 38 38 39 39 40 39 40 40 40 40 40 40 40 41 40 39 37 37 37 37 40 43 43 44 44 45 45 46 47 49 51 52 52 53 55 57 57 57 56 56 56 56 56 56 56 56 56 55 54 54 54 54 54 54
36 34 31 30 30 29 35 38 35 33 31 30 32 35 37 39 39 39 39 40 41 40 37 35 35 38 39 39 37 37 37 37 37 38 39 39 39 39 39 39 39 39 40 40 39 39 39 39 38 38 38 37 37 37 39 41 41 43 44 45 46 47 48 49 51 52 53 54 55 56 56 55 55 55 55 55 55 55 55 55 54 55 55 55 54 53
36 33 31 33 29 30 36 37 34 28 23 26 36 39 38 38 38 36 36 38 39 40 37 39 38 38 37 37 36 35 36 36 37 38 39 38 38 38 38 39 39 40 40 40 40 39 39 40 39 39 38 38 38 38 38 39 40 40 42 44 44 45 45 46 48 50 51 53 54 55 55 55 54 53 53 54 55 55 55 55 55 55 55 55 54 53
33 32 31 31 31 31 33 33 28 22 24 36 39 39 40 40 39 38 38 39 39 39 38 37 37 36 37 37 36 36 36 36 37 37 38 38 38 38 38 38 39 38 39 40 40 39 38 37 37 38 38 38 38 38 38 38 38 39 38 40 42 43 44 44 45 47 49 51 52 54 55 54 53 53 53 53 54 54 54 54 54 54 55 55 54 53
29 30 29 29 30 30 31 28 23 24 34 38 38 38 40 39 38 36 36 38 38 38 37 36 36 37 36 36 37 36 36 36 37 38 38 38 39 39 38 38 39 39 38 39 39 40 39 37 37 37 38 40 39 38 37 37 38 38 38 39 40 41 42 42 43 44 46 48 51 52 53 54 53 53 53 53 53 53 53 53 53 55 55 55 55 54
36 32 30 30 30 28 28 30 29 34 33 34 34 36 37 35 36 35 31 34 39 38 37 36 36 36 36 36 36 36 35 34 33 35 38 38 38 39 39 39 40 40 40 39 40 40 41 38 37 37 37 37 38 38 39 38 37 37 37 37 38 39 40 41 42 42 43 45 48 51 52 52 53 53 53 52 53 53 53 53 53 54 54 54 52 51
36 28 28 30 28 30 29 28 29 28 25 30 35 38 38 38 39 40 36 33 40 38 37 36 36 36 36 36 36 36 37 33 30 31 36 38 39 39 40 40 40 40 41 40 39 39 40 40 38 36 36 36 36 37 37 38 38 36 36 37 37 39 39 39 41 42 42 44 45 48 51 51 52 52 52 53 52 53 53 53 53 54 54 52 50 49
34 34 31 30 28 29 28 27 26 25 27 32 34 35 37 37 38 39 34 31 38 40 38 37 36 36 36 36 37 38 37 30 29 32 36 38 38 39 39 39 39 40 40 40 40 38 37 38 39 38 36 35 35 36 37 37 38 38 37 37 36 37 38 38 38 40 42 44 45 42 44 49 50 51 51 52 53 53 53 53 54 54 53 52 50 49
31 29 29 28 25 25 25 27 24 28 27 32 34 35 35 36 38 36 28 28 37 40 38 37 37 37 38 38 36 35 33 29 29 33 37 37 38 39 39 39 39 39 40 40 40 40 39 39 37 36 35 35 35 36 36 37 37 38 38 38 38 37 37 38 38 39 39 40 42 42 40 41 44 47 50 51 52 52 53 53 53 53 52 50 50 48
26 26 28 27 25 24 27 25 28 28 33 34 34 35 36 38 39 30 27 31 38 38 38 38 38 37 37 36 35 32 33 35 35 36 36 37 37 37 38 39 40 40 39 40 40 40 40 40 39 38 37 36 36 36 36 37 37 37 37 37 38 38 38 39 39 39 39 38 38 39 39 40 41 41 42 47 50 51 51 52 52 51 50 49 48 47
21 25 28 26 27 23 21 25 25 27 32 35 35 36 37 36 31 30 34 39 37 36 36 36 35 35 35 35 34 34 34 35 37 36 36 36 37 37 38 38 39 38 38 39 39 40 40 40 40 40 39 36 36 36 36 36 36 36 36 36 36 37 39 39 39 38 38 38 38 38 38 38 39 40 41 41 43 45 48 51 51 50 49 48 46 45
19 23 25 25 26 24 21 22 22 21 30 35 36 36 36 33 33 36 37 37 37 36 35 35 35 35 35 34 34 34 34 35 35 35 36 36 36 37 37 38 38 39 39 39 39 39 39 37 39 39 37 37 36 36 36 35 36 36 36 36 37 38 38 39 40 39 39 38 38 38 37 38 38 39 40 39 40 42 44 45 48 50 49 47 46 44
30 27 24 23 26 21 20 21 22 27 32 36 36 32 35 38 39 38 36 35 36 36 35 35 35 35 35 34 34 34 34 34 35 36 36 37 37 37 38 38 38 39 40 40 40 40 40 39 39 38 38 36 36 36 36 36 36 36 36 36 38 37 37 35 36 37 38 38 38 37 37 37 36 37 40 39 38 39 39 40 42 43 45 48 46 44
29 28 28 25 27 26 23 27 32 35 36 38 37 38 40 41 40 38 36 36 34 35 35 34 35 35 35 35 35 34 34 35 35 36 35 36 36 37 37 37 39 39 39 39 40 40 40 39 39 39 38 36 36 36 36 36 36 36 36 37 39 38 36 35 34 34 35 36 37 36 35 35 35 35 35 36 37 36 37 38 39 39 39 40 41 42
32 32 32 31 30 34 35 36 36 36 37 39 40 40 38 38 38 38 37 35 35 35 35 34 35 35 36 36 35 35 35 35 35 35 35 36 36 37 38 37 37 38 39 39 39 38 38 37 37 36 36 36 37 37 39 39 36 36 37 39 38 38 37 36 34 33 34 35 35 34 33 33 34 34 34 34 34 34 34 35 36 37 37 38 38 39
34 33 31 30 31 29 25 34 33 34 36 38 38 39 39 39 38 38 35 34 34 35 35 35 35 35 36 36 36 35 35 36 35 35 36 36 35 35 35 36 38 38 38 38 39 39 39 39 37 36 35 34 35 35 36 38 38 36 37 38 39 37 37 36 34 33 32 31 31 32 33 33 33 33 34 33 32 32 33 33 34 35 36 36 36 36
29 32 31 31 30 29 28 32 34 35 36 37 38 37 37 38 37 37 36 35 34 34 34 35 36 36 37 36 36 36 36 36 35 35 36 36 36 37 38 38 38 38 39 40 40 40 39 38 38 38 38 36 36 35 35 35 35 35 36 37 38 36 34 35 35 32 29 28 29 30 31 32 32 33 33 34 33 33 32 32 34 34 34 34 35 35
31 33 29 30 29 32 34 34 34 34 34 36 37 38 39 39 38 37 35 34 34 34 34 35 35 36 35 35 35 35 35 35 36 37 37 36 37 36 35 36 37 37 37 38 38 38 38 38 36 36 36 36 35 35 35 34 35 36 36 36 37 36 34 33 33 32 29 29 29 30 31 32 32 32 32 33 33 34 34 34 34 34 34 35 35 35
31 29 31 30 28 28 28 31 35 29 28 33 35 36 37 38 38 37 36 35 34 34 34 34 34 35 35 35 35 36 35 36 36 36 34 34 33 32 33 33 35 35 35 37 38 37 37 36 35 35 34 34 34 34 34 34 35 35 36 36 36 35 34 34 33 32 32 32 31 31 31 32 32 32 32 32 32 32 33 33 35 35 34 34 35 35
30 30 30 29 28 28 33 35 35 34 34 35 35 37 38 38 36 36 35 35 33 33 32 32 32 33 33 34 35 35 34 34 33 33 32 32 33 34 34 33 32 30 29 30 32 34 35 35 36 34 33 34 34 34 34 34 34 34 35 36 36 35 35 34 34 33 33 33 32 32 33 32 32 32 32 32 32 32 31 32 32 34 34 35 35 35